FREGAT DEB, 45872

Orbit data source: Space-Track

FREGAT DEB, 45872 is space debris in LEO originally from a launch on Mon, 18 Jul 2011 UTC launched from the Tyuratam Missile And Space Complex (TTMTR). Debris objects in space refer to the collection of defunct objects orbiting the Earth. Examples of debris include non-operational satellites, rocket bodies, and fragments generated from explosions, collisions, or faulty payload assembly.

Loading next visibility...
FREGAT DEB details
Identifier
45872, 2011-037CW
Orbit
LEO
Last TLE update14 hours ago
Origin
Flag of CISVVKO VKS (CIS)
ManufacturerLavochkin
MissionSpacecraft
Bus & MotorUnknown
MassUnknown
Launch date (UTC)
2011-07-18 (13 years ago)
Launch vehicleUnknown
Launch site
Tyuratam Missile And Space Complex (TTMTR)
Object type
Payload
Rocket body
Debris
Shape & HBRUnknown
Radar Cross SectionSmall (<0.1 m²)

Expand to show TLE details & history

TLE from 14 hours ago
0 FREGAT DEB
1 45872U 11037CW  24361.05794888  .00059720  00000-0  16023+0 0  9997
2 45872  51.4421 120.6965 1779417 164.7450 201.5052 10.67562865175045
Epoch: 2024-12-26T01:23Z
Definitive object data (Epoch: 2024-12-26T01:23:26.783Z)
Latitude
Longitude4.7921°
Altitude3,806.778 km
Speed5.705 km/s
True Right ascension08h 02m 47s
True Declination0° 00' 00"
Sunlit
Object was in full shadow at TLE epoch
Visualization TLE readout
Latitude51.44299°
Longitude87.90744°
Altitude1,792.46 km
Speed7.208 km/s
Apparent Right ascension08h 40m 52s
Apparent Declination53° 54' 41"
Sunlit
Object is in daylight
Visualization observer readout
Local Sidereal Time14:51:44
Azimuth317.306° NNW
Elevation29.808°
Doppler factor1
Orbital elements
Apogee altitude3,885.127 km
Perigee altitude784.358 km
Semi-major axis8,712.879 km
Eccentricity0.1779417
Inclination51.4421°
RAAN120.6965°
Arg. of periapsis164.745°
True anomaly195.32973°
Mean anomaly201.5052°
Eccentric anomaly198.30338°
Mean motion2.66871 °/min
BSTAR0.16023
Orbital period134.9 mins
Loading maneuver chart data...
Loading historical data...
Loading historical data...
Loading historical data...
Loading historical data...
Loading historical data...
Loading historical data...
Loading historical data...

FREGAT DEB Visibility forecast

Observer location: undefined°, undefined

Span
Click to sort rows by Start time (UTC) header in descending order
Start Az.
Max El. time (UTC)
Max El. Az.
Max El.
End time (UTC)
End Az.
11 mins2024-12-26 15:29:43.766Z317.139° NNW2024-12-26 15:33:43.766Z358.598° N34.293°2024-12-26 15:40:43.766Z77.069° E
12 mins2024-12-26 17:49:43.766Z305.472° NW2024-12-26 17:56:43.766Z190.572° SSW44.687°2024-12-26 18:01:43.766Z132.907° SE
31 mins2024-12-27 08:50:43.766Z189.256° SSW2024-12-27 09:08:43.766Z130.725° SE35.2°2024-12-27 09:21:43.766Z63.422° ENE
30 mins2024-12-27 11:13:43.766Z234.862° WSW2024-12-27 11:32:43.766Z326.055° NNW44.732°2024-12-27 11:43:43.766Z53.336° ENE
21 mins2024-12-27 13:43:43.766Z278.471° WNW2024-12-27 13:56:43.766Z346.082° N36.017°2024-12-27 14:04:43.766Z59.679° ENE
|